Regional Weather Roundup
Issued by NWS

Home | Current Version | Previous Version | Text Only | Print | Product List | Glossary On
Versions: 1 2 3 4 5 6 7 8 9 10 11 12 13 14 15 16 17 18 19 20 21 22 23 24 25 26 27 28 29 30 31 32 33 34 35 36 37 38 39 40 41 42 43 44 45 46 47 48 49 50
077
ASUS44 KJAN 290910
RWRMS

MISSISSIPPI HOURLY WEATHER ROUNDUP
NATIONAL WEATHER SERVICE JACKSON MS
400 AM CDT SUN MAR 29 2015

NOTE: "FAIR: INDICATES FEW OR NO CLOUDS BELOW 12,000 FEET WITH NO
SIGNIFICANT WEATHER AND/OR OBSTRUCTIONS TO VISIBILITY.

MSZ001>002-007>008-010>013-018>021-025>028-034>036-291000-
NORTHWEST MISSISSIPPI

CITY           SKY/WX    TMP DP  RH WIND       PRES   REMARKS
CLARKSDALE     CLOUDY    37  32  81 E6        30.28F WCI  33
CLEVELAND      CLOUDY    41  34  75 E9        30.25F
GREENWOOD      CLOUDY    42  28  57 E8        30.28F
GREENVILLE     MOCLDY    42  33  70 E8        30.24F
OLIVE BRANCH   CLEAR     32  32 100 SE5       30.28S WCI  27
OXFORD         FAIR      32  28  86 SE3       30.30S
TUNICA         SUNNY     34  32  93 SE5       30.29S WCI  30
$$

MSZ003>006-009-014>017-022>024-029>033-037>039-291000-
NORTHEAST MISSISSIPPI

CITY           SKY/WX    TMP DP  RH WIND       PRES   REMARKS
COLUMBUS AFB   CLOUDY    39  34  81 E5        30.31F
CORINTH        FAIR      30  28  93 CALM      30.29S
GOLDN TRIANGLE CLOUDY    41  30  65 E6        30.31S
STARKVILLE     CLOUDY    41  34  75 E5        30.31F
TUPELO         CLEAR     36  29  75 CALM      30.30F
$$

MSZ040-058-291000-
CENTRAL MISSISSIPPI

CITY           SKY/WX    TMP DP  RH WIND       PRES   REMARKS
JACKSON INTL   CLOUDY    44  31  60 SE7       30.26F
JACKSON HAWKNS CLOUDY    44  31  60 SE12      30.25F
MERIDIAN KEY   CLOUDY    40  33  76 NE5       30.30F
MERIDIAN NAS   NOT AVBL
RAYMOND        CLOUDY    45  39  81 E9        30.24F
VICKSBURG      MOCLDY    47  34  60 SE9       30.23F
$$

MSZ059>079-291000-
SOUTH MISSISSIPPI

CITY           SKY/WX    TMP DP  RH WIND       PRES   REMARKS
BROOKHAVEN     FAIR      45  36  70 CALM      30.26S
HATTIESBURG    CLEAR     42  33  70 CALM      30.29F
MCCOMB         CLOUDY    47  33  58 E6        30.24F
NATCHEZ        CLEAR     48  36  61 SE8       30.21S
PINE BELT      CLEAR     39  30  70 NE3       30.28S
$$

MSZ080>082-291000-
COASTAL MISSISSIPPI

CITY           SKY/WX    TMP DP  RH WIND       PRES   REMARKS
BILOXI         CLEAR     47  34  60 E10       30.25S
PASCAGOULA     CLEAR     44  35  70 NE6       30.27S
GULFPORT       CLEAR     47  34  60 E6        30.25S
$$



USA.gov is the U.S. government's official web portal to all federal, state and local government web resources and services.